K5SVV Weather Reports


Display with metric or nautical units.
time (UTC)temp
F
wind
direction
speed
MPH
gust
MPH
rain 1hr
in
rain 24hr
in
rain mn
in
humidity
%
barometer
mb
20260901201232 96 173 0.0 0.0 0.00 0.00 0.00 46 1014.1
20260901200726 96 107 0.0 0.0 0.00 0.00 0.00 47 1014.1
20260901200222 97 160 0.0 0.0 0.00 0.00 0.00 45 1013.9
20260901195719 96 170 2.0 3.0 0.00 0.00 0.00 46 1014.1
20260901195214 96 200 4.0 4.0 0.00 0.00 0.00 45 1013.9
20260901194710 96 167 0.0 0.0 0.00 0.00 0.00 44 1014.2
20260901194204 97 172 0.0 1.0 0.00 0.00 0.00 45 1014.2
20260901193700 98 133 1.0 2.0 0.00 0.00 0.00 44 1014.0
20260901193154 98 165 2.0 3.0 0.00 0.00 0.00 44 1014.1
20260901192649 98 159 4.0 4.0 0.00 0.00 0.00 43 1014.0
20260901192144 96 184 2.0 2.0 0.00 0.00 0.00 46 1014.6
20260901191640 97 91 0.0 0.0 0.00 0.00 0.00 45 1014.6
20260901191136 98 80 2.0 3.0 0.00 0.00 0.00 45 1014.7
20260901190632 98 40 3.0 4.0 0.00 0.00 0.00 43 1014.9
20260901190131 97 344 3.0 3.0 0.00 0.00 0.00 45 1014.7
20260901185629 98 170 0.0 0.0 0.00 0.00 0.00 44 1014.9
20260901185128 98 174 0.0 0.0 0.00 0.00 0.00 44 1015.0
20260901184624 98 200 3.0 3.0 0.00 0.00 0.00 45 1015.0
20260901184119 98 169 1.0 1.0 0.00 0.00 0.00 43 1015.1
20260901183614 98 157 1.0 4.0 0.00 0.00 0.00 43 1015.1
20260901183109 96 187 0.0 0.0 0.00 0.00 0.00 46 1015.1
20260901182606 96 189 2.0 2.0 0.00 0.00 0.00 47 1015.5
20260901182104 97 73 2.0 2.0 0.00 0.00 0.00 45 1015.5
20260901181559 95 149 2.0 3.0 0.00 0.00 0.00 46 1015.4
20260901181058 96 191 4.0 4.0 0.00 0.00 0.00 48 1015.7
20260901180558 96 153 0.0 0.0 0.00 0.00 0.00 47 1015.8
20260901180052 96 152 0.0 0.0 0.00 0.00 0.00 47 1015.9
20260901175545 97 119 0.0 0.0 0.00 0.00 0.00 47 1016.0
20260901175040 98 198 2.0 2.0 0.00 0.00 0.00 45 1016.1
20260901174536 96 143 1.0 1.0 0.00 0.00 0.00 45 1016.1
20260901174032 97 105 2.0 3.0 0.00 0.00 0.00 47 1016.3
20260901173527 98 147 0.0 0.0 0.00 0.00 0.00 45 1016.1
20260901173023 97 60 2.0 2.0 0.00 0.00 0.00 46 1016.3
20260901172518 95 174 4.0 4.0 0.00 0.00 0.00 48 1016.6
20260901172016 94 174 0.0 0.0 0.00 0.00 0.00 52 1016.4
20260901171515 94 156 2.0 2.0 0.00 0.00 0.00 51 1016.3
20260901171014 93 264 0.0 0.0 0.00 0.00 0.00 53 1016.6
20260901170509 94 192 5.0 7.0 0.00 0.00 0.00 51 1016.2
20260901170009 92 220 0.0 0.0 0.00 0.00 0.00 54 1016.4
20260901165503 92 210 2.0 2.0 0.00 0.00 0.00 54 1016.4
20260901164958 94 189 5.0 6.0 0.00 0.00 0.00 53 1016.7
20260901164453 94 219 0.0 1.0 0.00 0.00 0.00 52 1016.6
20260901163948 93 57 0.0 0.0 0.00 0.00 0.00 54 1016.6
20260901163444 94 184 4.0 4.0 0.00 0.00 0.00 52 1016.8
20260901162943 93 210 0.0 0.0 0.00 0.00 0.00 53 1016.4
20260901162438 93 237 1.0 2.0 0.00 0.00 0.00 55 1016.7
20260901161937 92 155 0.0 0.0 0.00 0.00 0.00 56 1016.8
20260901161437 92 184 5.0 6.0 0.00 0.00 0.00 55 1017.1
20260901160932 92 160 1.0 3.0 0.00 0.00 0.00 55 1016.9
20260901160428 91 181 2.0 3.0 0.00 0.00 0.00 57 1016.9
20260901155927 91 253 3.0 3.0 0.00 0.00 0.00 56 1016.8
20260901155422 91 208 3.0 3.0 0.00 0.00 0.00 58 1016.8
20260901154919 91 208 3.0 3.0 0.00 0.00 0.00 57 1016.9
20260901154417 91 251 2.0 4.0 0.00 0.00 0.00 57 1016.8
20260901153913 90 229 0.0 0.0 0.00 0.00 0.00 58 1016.9
20260901153412 90 217 5.0 7.0 0.00 0.00 0.00 59 1016.7
20260901152911 90 235 6.0 7.0 0.00 0.00 0.00 59 1016.9
20260901152406 89 221 1.0 2.0 0.00 0.00 0.00 61 1016.8
20260901151856 89 231 6.0 9.0 0.00 0.00 0.00 61 1016.7
20260901151355 89 175 7.0 9.0 0.00 0.00 0.00 60 1016.9
20260901150855 89 202 2.0 2.0 0.00 0.00 0.00 61 1016.8
20260901150352 88 172 3.0 4.0 0.00 0.00 0.00 62 1016.8
20260901145850 88 230 2.0 2.0 0.00 0.00 0.00 62 1016.8
20260901145350 88 199 3.0 3.0 0.00 0.00 0.00 64 1016.9
20260901144845 88 238 2.0 3.0 0.00 0.00 0.00 64 1016.8
20260901144341 87 200 3.0 4.0 0.00 0.00 0.00 66 1017.1
20260901143837 87 182 3.0 3.0 0.00 0.00 0.00 66 1017.2
20260901143333 87 209 2.0 2.0 0.00 0.00 0.00 67 1017.1
20260901142829 86 224 4.0 6.0 0.00 0.00 0.00 67 1016.9
20260901142328 86 223 0.0 0.0 0.00 0.00 0.00 67 1017.1
20260901141823 86 217 1.0 3.0 0.00 0.00 0.00 69 1016.8
20260901141318 85 181 1.0 3.0 0.00 0.00 0.00 70 1016.8
20260901140817 85 203 2.0 3.0 0.00 0.00 0.00 71 1017.1
20260901140315 84 215 3.0 4.0 0.00 0.00 0.00 71 1016.8
20260901135810 84 207 2.0 2.0 0.00 0.00 0.00 72 1017.0
20260901135310 84 186 0.0 1.0 0.00 0.00 0.00 74 1016.9
20260901134807 83 232 2.0 3.0 0.00 0.00 0.00 75 1017.3
20260901134301 83 191 2.0 3.0 0.00 0.00 0.00 75 1017.0
20260901133800 82 162 0.0 0.0 0.00 0.00 0.00 76 1017.0
20260901133254 82 173 2.0 3.0 0.00 0.00 0.00 77 1016.8
20260901132747 81 181 0.0 0.0 0.00 0.00 0.00 78 1016.9
20260901132242 81 181 2.0 2.0 0.00 0.00 0.00 78 1017.0
20260901131737 80 179 0.0 0.0 0.00 0.00 0.00 79 1016.9
20260901131236 80 163 0.0 0.0 0.00 0.00 0.00 79 1016.6
20260901130732 79 191 0.0 0.0 0.00 0.00 0.00 80 1016.7
20260901130231 78 192 0.0 0.0 0.00 0.00 0.00 81 1016.7
20260901125728 78 191 0.0 0.0 0.00 0.00 0.00 82 1016.9
20260901125223 77 192 0.0 0.0 0.00 0.00 0.00 83 1016.7
20260901124713 76 192 0.0 0.0 0.00 0.00 0.00 84 1016.5
20260901124212 76 192 0.0 0.0 0.00 0.00 0.00 84 1016.6
20260901123706 76 192 0.0 0.0 0.00 0.00 0.00 84 1016.6
20260901123201 76 192 0.0 0.0 0.00 0.00 0.00 83 1016.5
20260901122659 76 192 0.0 0.0 0.00 0.00 0.00 83 1016.1
20260901122154 76 192 0.0 0.0 0.00 0.00 0.00 83 1016.5
20260901121648 76 192 0.0 0.0 0.00 0.00 0.00 83 1016.1
20260901121144 76 192 0.0 0.0 0.00 0.00 0.00 82 1016.0
20260901120644 76 192 0.0 0.0 0.00 0.00 0.00 82 1016.1
20260901120139 76 192 0.0 0.0 0.00 0.00 0.00 82 1016.0
20260901115634 76 192 0.0 0.0 0.00 0.00 0.00 81 1015.8
20260901115131 76 192 0.0 0.0 0.00 0.00 0.00 81 1015.8
20260901114627 76 179 0.0 0.0 0.00 0.00 0.00 81 1016.0
20260901114126 76 192 0.0 0.0 0.00 0.00 0.00 81 1015.9
20260901113620 76 195 0.0 0.0 0.00 0.00 0.00 81 1015.6
20260901113115 76 192 0.0 0.0 0.00 0.00 0.00 81 1015.7
20260901112614 76 192 0.0 0.0 0.00 0.00 0.00 81 1015.7
20260901112109 76 192 0.0 0.0 0.00 0.00 0.00 81 1015.6
20260901111608 76 192 0.0 0.0 0.00 0.00 0.00 81 1015.7
20260901111107 76 194 0.0 0.0 0.00 0.00 0.00 80 1015.8
20260901110603 77 191 0.0 0.0 0.00 0.00 0.00 80 1015.6
20260901110058 77 184 0.0 0.0 0.00 0.00 0.00 80 1015.8
20260901105555 77 186 0.0 0.0 0.00 0.00 0.00 80 1015.6
20260901105053 77 179 0.0 0.0 0.00 0.00 0.00 80 1015.9
20260901104551 77 176 0.0 0.0 0.00 0.00 0.00 80 1015.5
20260901104045 77 185 0.0 0.0 0.00 0.00 0.00 79 1015.5
20260901103540 78 185 0.0 0.0 0.00 0.00 0.00 79 1015.7
20260901103035 78 179 0.0 0.0 0.00 0.00 0.00 78 1015.6
20260901102529 78 179 0.0 0.0 0.00 0.00 0.00 78 1015.6
20260901102024 78 183 0.0 0.0 0.00 0.00 0.00 77 1015.7
20260901101520 79 185 0.0 0.0 0.00 0.00 0.00 77 1015.5
20260901101019 79 179 0.0 0.0 0.00 0.00 0.00 77 1015.5
20260901100514 80 166 0.0 0.0 0.00 0.00 0.00 77 1015.5
20260901100013 80 192 0.0 0.0 0.00 0.00 0.00 76 1015.4
20260901095512 80 195 0.0 0.0 0.00 0.00 0.00 76 1015.4
20260901095009 80 192 1.0 2.0 0.00 0.00 0.00 75 1015.2
20260901094504 80 201 2.0 3.0 0.00 0.00 0.00 75 1015.5
20260901093958 80 189 0.0 0.0 0.00 0.00 0.00 75 1015.5
20260901093453 80 201 3.0 4.0 0.00 0.00 0.00 75 1015.5
20260901092953 80 212 0.0 0.0 0.00 0.00 0.00 74 1015.5
20260901092449 80 200 0.0 0.0 0.00 0.00 0.00 74 1015.4
20260901091944 81 195 0.0 0.0 0.00 0.00 0.00 74 1015.8
20260901091440 81 210 0.0 0.0 0.00 0.00 0.00 74 1015.7
20260901090934 81 206 1.0 4.0 0.00 0.00 0.00 73 1015.9
20260901090434 81 209 2.0 3.0 0.00 0.00 0.00 73 1015.5
20260901085929 80 193 0.0 0.0 0.00 0.00 0.00 73 1015.5
20260901085426 81 189 0.0 0.0 0.00 0.00 0.00 72 1015.7
20260901084921 81 188 0.0 2.0 0.00 0.00 0.00 72 1015.5
20260901084418 81 196 0.0 0.0 0.00 0.00 0.00 71 1015.6
20260901083913 81 192 0.0 0.0 0.00 0.00 0.00 71 1015.6
20260901083408 81 196 1.0 2.0 0.00 0.00 0.00 71 1015.7
20260901082906 81 195 0.0 0.0 0.00 0.00 0.00 70 1015.6
20260901082402 82 200 2.0 3.0 0.00 0.00 0.00 70 1015.5
20260901081856 82 202 0.0 0.0 0.00 0.00 0.00 69 1015.4
20260901081351 82 194 2.0 2.0 0.00 0.00 0.00 69 1015.3
20260901080851 82 191 2.0 3.0 0.00 0.00 0.00 68 1015.5
20260901080345 82 204 2.0 3.0 0.00 0.00 0.00 68 1015.3
20260901075840 82 208 6.0 7.0 0.00 0.00 0.00 67 1015.6
20260901075335 83 196 4.0 4.0 0.00 0.00 0.00 67 1015.7
20260901074830 83 194 3.0 4.0 0.00 0.00 0.00 66 1015.7
20260901074324 83 194 3.0 3.0 0.00 0.00 0.00 66 1015.7
20260901073815 83 210 4.0 6.0 0.00 0.00 0.00 65 1015.7
20260901073310 82 196 3.0 4.0 0.00 0.00 0.00 65 1015.5
20260901072806 82 165 2.0 3.0 0.00 0.00 0.00 64 1015.6
20260901072309 82 171 4.0 4.0 0.00 0.00 0.00 64 1015.6
20260901071800 82 181 2.0 2.0 0.00 0.00 0.00 64 1015.5
20260901071259 82 174 1.0 1.0 0.00 0.00 0.00 63 1015.1
20260901070758 82 162 2.0 2.0 0.00 0.00 0.00 63 1015.2
20260901070253 82 180 3.0 3.0 0.00 0.00 0.00 63 1015.4
20260901065753 82 182 0.0 0.0 0.00 0.00 0.00 62 1015.2
20260901065248 82 194 0.0 0.0 0.00 0.00 0.00 62 1015.3
20260901064744 82 190 0.0 0.0 0.00 0.00 0.00 62 1015.3
20260901064240 82 186 0.0 0.0 0.00 0.00 0.00 61 1015.4
20260901063737 82 189 0.0 0.0 0.00 0.00 0.00 61 1015.3
20260901063233 82 174 0.0 0.0 0.00 0.00 0.00 61 1015.2
20260901062729 82 177 0.0 0.0 0.00 0.00 0.00 60 1015.1
20260901062225 82 195 0.0 0.0 0.00 0.00 0.00 60 1015.0
20260901061720 82 172 0.0 0.0 0.00 0.00 0.00 60 1015.0
20260901061220 82 190 0.0 0.0 0.00 0.00 0.00 59 1014.7
20260901060715 82 174 0.0 0.0 0.00 0.00 0.00 58 1014.8
20260901060211 83 169 0.0 0.0 0.00 0.00 0.00 58 1014.9
20260901055706 83 174 0.0 0.0 0.00 0.00 0.00 57 1014.9
20260901055202 83 176 0.0 0.0 0.00 0.00 0.00 56 1014.5
20260901054659 83 174 1.0 2.0 0.00 0.00 0.00 56 1014.8
20260901054155 84 174 0.0 0.0 0.00 0.00 0.00 56 1014.7
20260901053651 84 154 0.0 0.0 0.00 0.00 0.00 55 1014.7
20260901053147 84 210 2.0 2.0 0.00 0.00 0.00 54 1014.7
20260901052642 84 178 1.0 2.0 0.00 0.00 0.00 54 1014.5
20260901052137 84 151 4.0 4.0 0.00 0.00 0.00 54 1014.5
20260901051636 84 175 0.0 0.0 0.00 0.00 0.00 53 1014.4
20260901051136 84 181 0.0 1.0 0.00 0.00 0.00 53 1014.4
20260901050632 84 176 0.0 0.0 0.00 0.00 0.00 53 1014.5
20260901050127 84 168 2.0 3.0 0.00 0.00 0.00 53 1014.2
20260901045626 83 186 0.0 0.0 0.00 0.00 0.00 53 1014.2
20260901045121 83 175 0.0 0.0 0.00 0.00 0.00 53 1014.4
20260901044617 82 189 0.0 0.0 0.00 0.00 0.00 54 1014.6
20260901044113 82 191 0.0 0.0 0.00 0.00 0.00 55 1014.2
20260901043609 82 191 0.0 0.0 0.00 0.00 0.00 55 1014.1
20260901043104 82 191 0.0 0.0 0.00 0.00 0.00 55 1014.1
20260901042603 82 191 0.0 0.0 0.00 0.00 0.00 56 1014.1
20260901042059 82 191 0.0 0.0 0.00 0.00 0.00 56 1014.2
20260901041554 82 191 0.0 0.0 0.00 0.00 0.00 55 1013.9
20260901041048 83 191 0.0 0.0 0.00 0.00 0.00 54 1014.0
20260901040548 83 191 0.0 0.0 0.00 0.00 0.00 53 1014.1
20260901040042 83 191 0.0 0.0 0.00 0.00 0.00 53 1014.2
20260901035540 83 191 0.0 0.0 0.00 0.00 0.00 53 1014.2
20260901035039 84 191 0.0 0.0 0.00 0.00 0.00 52 1014.2
20260901034533 84 191 0.0 0.0 0.00 0.00 0.00 52 1014.2
20260901034028 83 184 0.0 0.0 0.00 0.00 0.00 52 1014.2
20260901033527 83 173 0.0 0.0 0.00 0.00 0.00 53 1014.5
20260901033021 83 191 0.0 0.0 0.00 0.00 0.00 55 1014.0
20260901032516 84 191 0.0 0.0 0.00 0.00 0.00 54 1014.1
20260901032016 84 191 0.0 0.0 0.00 0.00 0.00 53 1014.5
20260901031511 84 190 0.0 0.0 0.00 0.00 0.00 53 1014.1
20260901031006 84 190 0.0 0.0 0.00 0.00 0.00 52 1014.1
20260901030456 84 190 0.0 0.0 0.00 0.00 0.00 51 1013.9
20260901025954 84 191 0.0 0.0 0.00 0.00 0.00 52 1014.1
20260901025449 85 190 0.0 0.0 0.00 0.00 0.00 51 1013.9
20260901024948 85 190 0.0 0.0 0.00 0.00 0.00 50 1013.9
20260901024444 85 190 0.0 0.0 0.00 0.00 0.00 50 1013.9
20260901023942 85 190 0.0 0.0 0.00 0.00 0.00 50 1013.8
20260901023437 85 190 0.0 0.0 0.00 0.00 0.00 50 1014.0
20260901022932 85 191 0.0 0.0 0.00 0.00 0.00 49 1013.7
20260901022428 86 191 0.0 0.0 0.00 0.00 0.00 49 1013.7
20260901021923 86 190 0.0 0.0 0.00 0.00 0.00 48 1013.6
20260901021419 86 190 0.0 0.0 0.00 0.00 0.00 48 1013.5
20260901020914 86 190 0.0 0.0 0.00 0.00 0.00 48 1013.7
20260901020409 86 188 0.0 0.0 0.00 0.00 0.00 47 1013.3
20260901015908 87 190 0.0 0.0 0.00 0.00 0.00 47 1013.2
20260901015405 87 190 0.0 0.0 0.00 0.00 0.00 46 1013.5
20260901014903 87 190 0.0 0.0 0.00 0.00 0.00 46 1013.3
20260901014359 87 186 0.0 0.0 0.00 0.00 0.00 45 1013.3
20260901013855 88 183 0.0 0.0 0.00 0.00 0.00 44 1013.4
20260901013345 89 182 0.0 0.0 0.00 0.00 0.00 43 1013.2
20260901012841 89 183 0.0 0.0 0.00 0.00 0.00 42 1013.3
20260901012335 89 179 0.0 0.0 0.00 0.00 0.00 42 1013.2
20260901011831 90 190 0.0 0.0 0.00 0.00 0.00 41 1013.1
20260901011326 90 172 0.0 0.0 0.00 0.00 0.00 41 1013.2
20260901010825 91 177 0.0 0.0 0.00 0.00 0.00 40 1013.2
20260901010321 91 174 0.0 0.0 0.00 0.00 0.00 39 1013.2
20260901005819 92 166 0.0 0.0 0.00 0.00 0.00 39 1013.0
20260901005315 92 178 0.0 0.0 0.00 0.00 0.00 38 1013.2
20260901004815 93 181 0.0 0.0 0.00 0.00 0.00 38 1013.2
20260901004309 93 166 0.0 0.0 0.00 0.00 0.00 37 1013.2
20260901003808 94 184 0.0 0.0 0.00 0.00 0.00 37 1013.1
20260901003304 94 173 0.0 1.0 0.00 0.00 0.00 38 1013.0
20260901002802 95 157 0.0 0.0 0.00 0.00 0.00 38 1013.0
20260901002257 95 181 0.0 0.0 0.00 0.00 0.00 37 1013.1
20260901001752 95 171 0.0 0.0 0.00 0.00 0.00 37 1012.9
20260901001248 96 166 0.0 0.0 0.00 0.00 0.00 36 1013.1
20260901000743 96 164 0.0 1.0 0.00 0.00 0.00 36 1012.8
20260901000241 96 158 2.0 2.0 0.00 0.00 0.00 36 1013.1
20260831235737 97 169 1.0 1.0 0.00 0.00 0.00 36 1013.0
20260831235233 97 165 1.0 1.0 0.00 0.00 0.00 35 1012.9
20260831234733 97 184 3.0 3.0 0.00 0.00 0.00 35 1013.1
20260831234233 98 126 5.0 7.0 0.00 0.00 0.00 35 1013.1
20260831233728 98 138 3.0 7.0 0.00 0.00 0.00 35 1013.1
20260831233224 98 79 2.0 3.0 0.00 0.00 0.00 35 1012.6
20260831232724 98 163 3.0 4.0 0.00 0.00 0.00 36 1013.0
20260831232220 99 154 1.0 3.0 0.00 0.00 0.00 35 1013.2
20260831231716 98 189 0.0 0.0 0.00 0.00 0.00 35 1013.0
20260831231212 99 151 0.0 0.0 0.00 0.00 0.00 35 1013.0
20260831230712 99 164 1.0 1.0 0.00 0.00 0.00 36 1012.9
20260831230207 99 156 2.0 2.0 0.00 0.00 0.00 36 1012.9
20260831225707 99 114 1.0 2.0 0.00 0.00 0.00 35 1012.9
20260831225202 99 164 0.0 1.0 0.00 0.00 0.00 36 1013.2
20260831224657 99 136 2.0 3.0 0.00 0.00 0.00 36 1013.1
20260831224152 99 162 1.0 2.0 0.00 0.00 0.00 35 1013.3
20260831223648 100 150 1.0 2.0 0.00 0.00 0.00 36 1013.3
20260831223144 99 186 0.0 0.0 0.00 0.00 0.00 36 1013.5
20260831222639 99 125 3.0 4.0 0.00 0.00 0.00 36 1013.4
20260831222135 99 167 5.0 7.0 0.00 0.00 0.00 36 1013.3
20260831221630 99 149 1.0 2.0 0.00 0.00 0.00 36 1013.2
20260831221125 98 173 3.0 4.0 0.00 0.00 0.00 36 1013.2
20260831220621 96 172 1.0 2.0 0.00 0.00 0.00 38 1013.3
20260831220115 97 132 3.0 4.0 0.00 0.00 0.00 38 1013.5
20260831215611 98 163 2.0 3.0 0.00 0.00 0.00 38 1013.2
20260831215107 99 162 2.0 2.0 0.00 0.00 0.00 37 1013.4
20260831214604 100 160 4.0 6.0 0.00 0.00 0.00 35 1013.6
20260831214100 101 152 6.0 8.0 0.00 0.00 0.00 36 1013.5
20260831213556 100 65 2.0 2.0 0.00 0.00 0.00 35 1013.4
20260831213051 99 188 5.0 7.0 0.00 0.00 0.00 37 1013.8
20260831212542 100 187 0.0 0.0 0.00 0.00 0.00 36 1013.7
20260831212037 100 160 2.0 4.0 0.00 0.00 0.00 37 1013.8
20260831211531 98 92 0.0 0.0 0.00 0.00 0.00 38 1013.7
20260831211031 101 157 0.0 1.0 0.00 0.00 0.00 37 1013.8
20260831210526 101 205 3.0 7.0 0.00 0.00 0.00 36 1013.9
20260831210022 101 48 1.0 3.0 0.00 0.00 0.00 35 1013.8
20260831205516 101 195 6.0 8.0 0.00 0.00 0.00 35 1014.0
20260831205012 100 182 2.0 2.0 0.00 0.00 0.00 35 1014.1
20260831204507 100 153 5.0 7.0 0.00 0.00 0.00 36 1014.4
20260831204005 100 168 5.0 7.0 0.00 0.00 0.00 36 1014.2
20260831203505 101 171 6.0 8.0 0.00 0.00 0.00 35 1014.5
20260831203004 100 159 1.0 1.0 0.00 0.00 0.00 35 1014.6
20260831202459 100 103 5.0 6.0 0.00 0.00 0.00 35 1014.7
20260831201958 100 159 0.0 1.0 0.00 0.00 0.00 35 1014.7